This is the latest recevied weather packets stored in our database for station/object HF3P-11. If no packets are shown the sender has not sent any weather packets the latest 1 day(s).
| Time | Temp. | Humidity | Pressure | Rain* | Wind** | Luminosity | Snow |
|---|---|---|---|---|---|---|---|
| 1778018108 | 12.22° C | 87% | 1000.1 hPa | 0 mm | 1.79 m/s, 44° | - | - |
| 1778017811 | 25.56° C | 87% | 1000.2 hPa | 0 mm | 1.79 m/s, 43° | - | - |
| 1778017509 | 12.22° C | 86% | 1000.2 hPa | 0 mm | 2.24 m/s, 43° | - | - |
| 1778017210 | 12.22° C | 86% | 1000.2 hPa | 0 mm | 2.24 m/s, 36° | - | - |
| 1778016908 | 11.11° C | 86% | 1000.2 hPa | 0 mm | 2.24 m/s, 48° | - | - |
| 1778016608 | 12.22° C | 86% | 1000.3 hPa | 0 mm | 1.79 m/s, 47° | - | - |
| 1778016310 | 20° C | 86% | 1000.1 hPa | 0 mm | 2.24 m/s, 32° | - | - |
| 1778016009 | 20.56° C | 86% | 1000.1 hPa | 0 mm | 2.68 m/s, 33° | - | - |
| 1778015709 | 17.78° C | 86% | 1000.2 hPa | 0 mm | 2.24 m/s, 41° | - | - |
| 1778015409 | 12.22° C | 86% | 1000.3 hPa | 0 mm | 2.24 m/s, 46° | - | - |
| 1778015108 | 12.78° C | 86% | 1000.1 hPa | 0 mm | 2.24 m/s, 41° | - | - |
| 1778014801 | 21.11° C | 86% | 1000.2 hPa | 0 mm | 2.68 m/s, 35° | - | - |
| 1778014500 | 12.78° C | 86% | 1000.1 hPa | 0 mm | 2.68 m/s, 37° | - | - |
| 1778014200 | 12.78° C | 86% | 1000.2 hPa | 0 mm | 2.68 m/s, 30° | - | - |
| 1778013909 | 12.78° C | 86% | 1000.3 hPa | 0 mm | 2.68 m/s, 27° | - | - |
| 1778013600 | 12.78° C | 86% | 1000.2 hPa | 0 mm | 2.24 m/s, 36° | - | - |
| 1778013301 | 12.78° C | 86% | 1000.2 hPa | 0 mm | 2.24 m/s, 39° | - | - |
| 1778013001 | 12.78° C | 86% | 1000.4 hPa | 0 mm | 2.68 m/s, 31° | - | - |
| 1778012701 | 12.78° C | 86% | 1000.2 hPa | 0 mm | 2.24 m/s, 25° | - | - |
| 1778012409 | 12.78° C | 86% | 1000.4 hPa | 0 mm | 1.79 m/s, 25° | - | - |
| 1778012101 | 12.78° C | 86% | 1000 hPa | 0 mm | 2.24 m/s, 35° | - | - |
| 1778011809 | 12.78° C | 86% | 1000.2 hPa | 0 mm | 2.68 m/s, 45° | - | - |
| 1778011500 | 13.33° C | 86% | 1000.2 hPa | 0 mm | 2.68 m/s, 42° | - | - |
| 1778011209 | 13.33° C | 86% | 1000.2 hPa | 0 mm | 2.24 m/s, 39° | - | - |
| 1778010909 | 13.33° C | 86% | 1000.4 hPa | 0 mm | 2.24 m/s, 35° | - | - |
* Rain latest hour (hover to see other rain measurements)
** Current wind speed in m/s (hover to see current wind gust speed)